Погода в Скривери

Погода в Скривери : погода сейчас, прогноз погоды и архив. Всё, что Вы хотите узнать о погоде в Скривери!

Поиск расширенной информации на нашем сайте:

Другие новости

Новости СМИ2

Главная страница сайта

Новости сайта

03.07.2017

Напоминаем, что на нашем специализированном сайте Метеоцентр.Азия вы можете получить высокодетализированные автоматические прогнозы погоды по пунктам России, СНГ и мира в авиационном формате (включающие направление и скорость ветра, видимость, явления погоды, количество и форму облачности, нижнюю и верхнюю границу облачности).


Погода в Скривери - сегодня

Время (UTC), дата Ветер
(°,м/с) 
Видим.   Явления Облачность Т
(°С)
Тd
(°С)
f(%) Тe
(°С)
Pmin
(гПа)
dP
(гПа)
Po
(мм)
O2
(г/м3)
Тmin Tmax R s Состояние
почвы
15 24.08.18 160 (Ю) 5-10{12}  20000 м    8/0 верхняя 
[Cs]
+27.1 +13 42 +33  1006.6  -1.6  748  271           
18 24.08.18 140 (ЮВ) 2{12}  20000 м    10/0 средняя 
[Ac As]
+23.4 +13.5 54 +30  1005.7  -1  747  274    +28.2       
21 24.08.18 210 (ЮЗ) 20000 м    10/0 средняя 
[Ac As]
+21.9 +14.2 62 +29  1005.9  0.2  747  275           
00 25.08.18 180 (Ю) 20000 м  {ливн. осадки}  10/10 660 м 
[Sc]
+18.1 +16 88 +30  1006  747  279           
06 25.08.18 тихо ()   2000 м  слаб. морось{ливн. осадки}  10/10 240 м 
[St]
+17.6 +16.9 96 +30  1006.9  0.2  748  279  +17.5    0.9     
09 25.08.18 050 (СВ) 10 км  слаб. ливневой дождь{морось}  10/10 960 м кучево-дожд. 
[Cb cap]
+16.6 +15.4 93 +28  1007.6  0.7  748  280           
12 25.08.18 тихо ()   20000 м  в посл. час ливневой дождь{морось}  10/8 420 м кучево-дожд., средняя 
[Cb calv|Ac und]
+17.8 +15.7 88 +28  1008  0.4  749  280           
15 25.08.18 350 (С) 20000 м    10/8 1470 м кучево-дожд., средняя 
[Cb calv|Ac und]
+17.1 +14.1 83 +26  1008.2  0.2  749  280           
18 25.08.18 050 (СВ) 10 км  слаб. ливневой дождь  10/10 330 м кучево-дожд. 
[Cb cap]
+13.8 +11.9 88 +19  1008.4  0.1  749  284    +18.5     
21 25.08.18 тихо ()   10 км  {ливн. осадки}  9/0 средняя 
[Ac trans]
+12.8 +11.9 94 +17  1010.2  1.7  750  286           
00 26.08.18 тихо ()   10 км  местами туман поземный{ливн. осадки}  6/0 средняя 
[Ac trans]
+10.4 +9.9 97 +11  1010.6  0.3  751  290           
06 26.08.18 170 (Ю) 4000 м  в посл. час туман  8/0 средняя 
[Ac trans]
+13.1 +12.7 97 +19  1011.4  0.6  751  286  +8.5    0.1     
09 26.08.18 220 (ЮЗ) 20000 м    9/6 1000 м средняя 
[Cu med, cong|Ac trans]
+17.3 +12.1 71 +22  1011.8  0.6  751  282           
12 26.08.18 220 (ЮЗ) 20000 м  в посл. час ливневой дождь  10/3 600 м кучево-дожд., средняя 
[Cb cap|Ac As]
+17.4 +12.2 72 +22  1012.2  0.4  752  283           
15 26.08.18 200 (Ю) 20000 м  слаб. ливневой дождь  10/6 600 м кучево-дожд., средняя 
[Cb cap|Ac As]
+14.1 +12.9 92 +20  1012.8  0.5  752  285           
18 26.08.18 220 (ЮЗ) 10 км  слаб. ливневой дождь  10/10 450 м кучево-дожд. 
[Cb cap]
+13.8 +12.9 94 +20  1013.7  0.8  753  286    +18.7     
21 26.08.18 190 (Ю) 10 км  в посл. час ливневой дождь  10/0 средняя 
[Ac und]
+12.5 +11.8 95 +18  1014.3  0.6  753  287           
00 27.08.18 220 (ЮЗ) 10 км  {ливн. осадки}  8/8 300 м 
[St]
+12 +11.5 97 +16  1014.7  0.4  754  289           
06 27.08.18 170 (Ю) 1000 м  в посл. час туман  10/10 300 м 
[St]
+11.7 +11.2 97 +16  1016.3  755  289  +11.2       
15 05.09.18 тихо ()   20000 м    8/3 1000 м средняя, верхняя 
[Sc|Ac As|Cs]
+21.1 +13.2 61 +27  1017.5  -0.2  756  279           
21 06.09.18 040 (СВ) 20000 м    ясно 
+13.9 +10.1 78 +16  1016.3  -0.1  755  287           
15 07.09.18 160 (Ю) 20000 м    4/0 средняя, верхняя 
[Ac trans|Ci fib]
+25.1 +5.2 28 +25  1015.9  -0.1  755  277           
15 10.09.18 230 (ЮЗ) 20000 м  гроза без осадков  8/4 600 м кучево-дожд., средняя 
[Cb cap|Ac trans]
+22.3 +12.5 54 +27  1020.2  -0.5  758  279           
18 10.09.18 060 (СВ) 2{11}  10 км  гроза, ливневой дождь  8/4 300 м кучево-дожд., средняя 
[Cb cap|Ac As]
+14.8 +13.3 91 +21  1020.7  0.2  758  286    +24.4     
00 14.09.18 тихо ()   20000 м  местами туман поземный  ясно 
+5.6 +4.9 95 +6  1018.8  0.2  757  298           
Время (UTC), дата Ветер
(°,м/с) 
Видим.   Явления Облачность Т
(°С)
Тd
(°С)
f(%) Тe
(°С)
Pmin
(гПа)
dP
(гПа)
Po
(мм)
O2
(г/м3)
Тmin Tmax R s Состояние
почвы

Для получения пояснительной информации подведите курсор к названию столбца.

ПОГОДА в Скривери - архив

Всё, что Вы хотите узнать о погоде в Скривери - удобно и подробно!

Выберите нужную дату (начиная с 1 января 2015* года) и нажмите кнопку "Найти".
Будут отображены архивные сводки погоды по пункту Скривери, начиная с указанной даты.


Отображать данные в формате CSV (для использования в таблицах Excel)


Внимание! Наш архив погоды предназначен исключительно для личного некоммерческого использования в познавательных целях. Если Вам необходимы официальные справки о состоянии погоды (для производственных, юридических, коммерческих и т.п. целей), обращайтесь в органы Росгидромета.

*Примечание: данная дата относится к архиву по метеостанциям СССР (Россия, СНГ, Балтия).
Архив по метеостанциям Зарубежной Европы и Азии (кроме Китая) хранится 10 дней, по другим регионам земного шара (Китай, Африка, Америка, Австралия, Океания) - 1 день.

Скривери - район местоположения метеостанции


Название, широта, долгота, высота метеостанции:
Скривери 56.6°ш. 25.1°д. 83 м над ур. моря [Латвия]

Дополнительная информация

В oтличие oт бoльшинства пoгoдных сайтoв мы публикуем пoдрoбную метеoинфoрмацию в детальнoм прoфессиoнальнoм фoрмате.

Характеристики температуры и влажнoсти вoздуха измеряются на высoте 2 м в тени вдали oт зданий и деревьев.
Скoрoсть ветра измеряется на высoте 10 м (на урoвне рoста челoвека скoрoсть ветра ниже в 1.5-2 раза). Если метеoстанция нахoдится в гoрoде или в лесу, тo скoрoсть ветра занижена на 2-4 м/с пo сравнению с oткрытым местoм. Скoрoсть ветра над акватoриями крупных рек и oзёр, а также на вершинах хoлмoв на 2-5 м/с выше, чем в oбычных услoвиях.
Атмoсфернoе давление в разных тoчках местнoсти мoжет значительнo oтличаться oт давления на метеoстанции, в зависимoсти oт услoвий рельефа (при пoдъёме на 10 м давление пoнижается примернo на 1 мм рт.ст.).